sat.trackr.live / text

‹ back to catalog

STARLINK-2188

NORAD 48563 · 2021-041L

PAYLOAD ACTIVE UNKNOWN

§ Identity

Operator
Country
US
Launch date
2021-05-15
Launch site
AFETR
Launch vehicle
Mass (kg)
RCS (m²)

Purposes: comms

External: N2YO · Heavens-Above · Gunter

§ Orbital elements

Epoch: 2026-05-25T02:37:27.845184Z

Period
94.01 min
Inclination
53.1581°
Eccentricity
0.0001143
Mean motion
15.31700737 rev/d
Perigee alt
470.0 km
Apogee alt
471.5 km
Semi-major
6,848.9 km
B*
5.4786e-5
RAAN
131.2908°
Arg perigee
57.0117°
Mean anomaly
303.0994°
Rev number
27,698

§ Raw data

STARLINK-21881 48563U 21041L   26145.10935006  .00001335  00000+0  54786-4 0  99912 48563  53.1581 131.2908 0001143  57.0117 303.0994 15.31700737276989

JSON: /api/v1/satellites/48563 · /tle

For live sub-satellite position, see the globe view (requires WebGL).

§ Visibility from observer

Set your observer location to see the next 7 days of passes ≥ 10°. The values pass through the URL so the page stays shareable.

No JS? Fill the form by hand. The geolocation button needs JavaScript.